STARLINK-11280, 61245

Orbit data source: Space-Track

STARLINK-11280, 61245 is a payload satellite owned by SpaceX/Seattle (US) in LEO that was launched on Wed, 25 Sep 2024 UTC via an FALCON 9 launch vehicle from the Air Force Western Test Range (AFWTR). Payload-class satellites include a variety of spacecraft equipped with specific instruments for various scientific and technological missions. These include communications satellites like Starlink; space stations such as the ISS; scientific satellites like the Hubble; Earth observation satellites from companies like Planet Labs, Umbra, and HawkEye 360; GPS; miniature CubeSats for education and research; and military/defense satellites.

Loading next visibility...
Identifier
61245, 2024-175C
Orbit
LEO
Last TLE update
1 day ago
Origin
Manufacturer
SpaceX/Seattle
Mission
Operational Commercial Communications
Bus & Motor
STARLINK V2M, Unknown motor
Mass
730 kg wet, ~700 kg dry
Launch date (UTC)
2024-09-25 (7 months ago)
Launch vehicle
FALCON 9
Launch site
Air Force Western Test Range (AFWTR)
Object type
Payload
Rocket body
Debris
Shape & HBR
Box + 2 Pan, 29 m
Radar Cross Section
36.964 m², Large (>1 m²)

Expand to show TLE details & history

TLE from 1 day ago
0 STARLINK-11280
1 61245U 24175C   25128.23721154  .00006389  00000-0  57517-4 0  9995
2 61245  53.1570 121.9024 0001434 104.5829 255.5348 15.69724928 35396
Epoch: 2025-05-08T05:41Z
Definitive object data (Epoch: 2025-05-08T05:41:35.077Z)
Latitude
Longitude
170.19566°
Altitude
360.84 km
Speed
7.694 km/s
True Right ascension
08h 07m 36s
True Declination
0° 00' 00"
Sunlit
Object was in daylight at TLE epoch
Visualization TLE readout
Latitude
50.78931°
Longitude
-128.94342°
Altitude
364.816 km
Speed
7.697 km/s
Apparent Right ascension
06h 36m 36s
Apparent Declination
21° 09' 30"
Sunlit
Object is in daylight
Visualization observer readout
Local Sidereal Time
14:36:25
Azimuth
305.466° NW
Elevation
-7.212°
Doppler factor
1
Orbital elements
Apogee altitude
360.911 km
Perigee altitude
358.979 km
Semi-major axis
6,738.082 km
Eccentricity
0.0001434
Inclination
53.157°
RAAN
121.9024°
Arg. of periapsis
104.5829°
True anomaly
255.51889°
Mean anomaly
255.5348°
Eccentric anomaly
255.52684°
Mean motion
3.92409 °/min
BSTAR
0.000057517
Orbital period
91.74 mins
Loading maneuver chart data...
Loading SW <> Apogee altitude chart data...
Loading historical data...
Loading historical data...
Loading historical data...
Loading historical data...
Loading historical data...
Loading historical data...
Loading historical data...

STARLINK-11280 Visibility forecast

Observer location: undefined°, undefined°

Span
Click to sort rows by Start time (UTC) header in descending order
Start Az.
Max El. time (UTC)
Max El. Az.
Max El.
End time (UTC)
End Az.
4 mins2025-05-09 08:08:35.021Z340.234° N2025-05-09 08:10:35.021Z38.733° NE23.873°2025-05-09 08:12:35.021Z87.956° E
|